Snowfall_Accumulation
0.0 0.0 0.0 0.0 0.0 0.0 0.0 0.0 0.0 0.0 0.0 0.0 0.0 0.0 0.0 0.0 0.0 0.0 0.0 0.0 0.0 0.0 0.0 0.0 0.0 0.0 0.1 0.0 0.0 0.0 0.0 0.0 0.6 0.1 0.0 0.0 0.0 0.1 0.1 0.2 0.5 0.0 0.0
0.0 0.0 0.0 0.0 0.0 0.0 0.0 0.0 0.0 0.0 0.0 0.0 0.0 0.0 0.0 0.0 0.0 0.0 0.0 0.0 0.0 0.1 0.1 0.0 0.1 0.0 0.0 0.0 0.0 0.0 0.0 0.0 0.0 0.1 0.0 0.0 0.0 0.1 0.1 0.1 0.1 0.0 0.4
0.0 0.0 0.0 0.0 0.0 0.0 0.0 0.0 0.0 0.0 0.0 0.0 0.0 0.0 0.0 0.0 0.0 0.0 0.1 0.1 0.1 0.1 0.1 0.1 0.1 0.2 0.2 0.3 0.0 0.0 0.1 0.0 0.0 0.7 0.0 0.0 0.0 0.0 0.4 0.3 0.1 0.1 0.1
0.0 0.0 0.0 0.0 0.0 0.0 0.0 0.1 0.0 0.0 0.0 0.0 0.0 0.0 0.0 0.0 0.0 0.0 0.0 0.0 0.0 0.1 0.1 0.0 0.0 0.1 0.3 0.1 0.1 0.1 0.0 0.4 0.5 0.6 0.6 0.0 0.0 0.0 0.5 0.6 0.9 0.7 0.5
0.0 0.0 0.0 0.0 0.0 0.3 0.3 0.3 0.3 0.3 0.2 0.3 0.2 0.0 0.0 0.0 0.0 0.0 0.0 0.1 0.1 0.1 0.1 0.0 0.0 0.0 nan nan 0.5 0.4 0.3 0.5 1.1 1.2 0.9 0.0 0.0 0.7 0.7 0.7 0.8 0.7 0.6
0.0 0.0 0.0 0.6 0.9 0.7 0.9 1.3 0.5 0.4 0.4 0.4 0.3 0.3 0.0 0.0 nan nan 0.2 0.5 0.3 0.3 0.3 0.1 0.0 0.1 0.0 nan nan nan nan 0.9 3.6 3.8 1.8 1.1 0.2 0.6 0.6 0.8 1.0 1.3 2.6
0.9 1.6 1.7 1.7 2.2 1.4 1.0 1.2 0.9 0.9 0.9 0.5 0.4 0.3 0.3 0.2 nan nan nan 0.7 0.6 0.2 0.3 0.2 0.2 0.1 0.2 0.2 nan nan nan nan nan 0.2 1.4 0.5 0.2 0.1 0.1 0.2 0.4 1.1 1.0
2.6 3.4 2.3 1.9 3.2 0.8 0.8 0.7 1.0 0.7 0.9 0.5 0.8 0.8 0.6 0.2 nan nan nan 0.6 0.5 0.3 0.3 0.3 0.3 0.3 0.2 0.3 0.7 0.7 0.6 0.5 0.3 0.0 0.2 0.1 0.0 0.1 0.1 0.1 0.6 1.8 1.4
1.1 1.7 1.8 2.7 3.7 1.4 3.6 0.7 0.7 2.2 1.3 2.5 2.5 3.5 2.9 2.9 nan nan 1.6 2.0 1.5 1.0 0.5 0.4 0.3 0.3 nan nan 1.0 1.5 1.2 0.7 nan nan nan nan nan nan nan 3.3 9.0 10.9 7.9
1.2 1.1 1.3 2.4 4.8 3.8 2.0 3.1 3.5 3.3 3.2 3.5 3.3 2.8 0.8 4.9 nan nan nan 5.0 4.1 2.8 1.1 0.8 0.2 0.3 nan nan 0.7 1.1 2.0 1.0 0.7 2.6 0.5 0.2 nan nan nan 0.2 2.4 7.6 6.0
1.8 1.5 1.6 2.2 5.0 3.3 3.7 3.0 4.2 4.3 2.3 3.7 3.5 2.7 3.1 1.9 2.1 nan nan 3.3 4.1 4.6 4.0 2.6 1.3 nan nan nan nan 1.0 1.4 0.5 2.3 2.0 1.7 2.1 1.3 0.8 1.5 1.2 0.5 2.1 4.5
1.7 1.8 3.2 5.2 5.1 4.9 8.1 4.7 6.2 5.6 5.3 4.5 4.7 3.7 3.3 1.7 nan nan nan nan nan 7.0 2.9 1.6 1.3 nan nan nan 0.8 nan nan nan 4.4 4.7 3.9 3.1 2.6 2.3 1.5 1.4 0.3 0.6 0.9
5.3 7.4 7.5 6.5 6.6 6.7 9.7 5.6 7.2 5.9 6.9 4.0 5.1 4.7 3.0 2.7 3.5 nan nan nan nan 4.2 2.9 1.6 nan nan nan nan nan nan 0.0 2.7 3.7 4.5 2.9 1.8 1.3 1.1 0.5 1.9 1.0 4.5 3.3
10.7 5.3 4.1 5.3 3.8 4.7 6.8 8.0 10.2 7.3 5.6 6.0 7.0 6.3 3.8 3.5 2.7 2.7 5.1 3.4 1.1 3.5 nan 2.6 nan 1.2 nan nan 0.8 1.2 1.7 1.6 1.9 2.4 2.1 1.2 1.4 1.9 3.0 2.5 4.7 4.5 7.6
6.6 3.4 4.8 7.1 7.9 4.2 3.7 8.2 6.3 3.5 7.6 11.3 12.3 7.5 8.2 7.5 6.1 3.4 6.8 7.0 6.7 5.6 4.1 6.9 5.2 2.2 1.9 1.6 2.3 1.7 1.6 1.9 1.6 2.5 2.6 2.9 3.1 3.4 3.4 3.3 4.0 6.6 7.3
3.5 5.4 5.8 5.8 4.9 4.1 4.0 3.5 nan nan nan nan nan 8.1 10.5 nan nan nan nan nan nan nan 10.2 11.1 4.6 3.5 2.2 2.2 2.6 2.1 2.0 1.3 1.5 2.3 2.8 3.1 3.4 3.7 4.4 5.4 5.6 7.6 7.7
7.9 4.9 5.8 4.5 4.6 5.3 5.1 5.8 7.1 4.1 nan nan nan nan nan nan nan nan nan nan nan nan 17.6 9.1 6.7 3.9 3.4 1.8 2.4 1.7 1.6 1.4 0.3 1.6 2.3 3.1 4.1 5.1 5.6 5.9 5.8 5.9 8.7
7.5 1.6 8.0 6.9 6.2 6.4 7.0 7.2 8.2 11.2 11.2 9.3 nan nan nan nan nan nan nan nan 16.2 nan 17.9 15.2 11.7 8.7 5.5 4.4 3.5 2.6 1.9 1.5 1.4 2.5 3.1 6.2 7.9 8.7 8.7 9.4 7.7 10.0 10.1
8.3 7.9 8.3 8.0 7.8 9.2 9.0 9.3 8.6 12.9 13.3 14.4 11.6 10.8 6.0 nan nan nan nan 15.8 21.9 19.3 20.4 19.0 13.6 10.1 7.3 8.0 6.9 7.5 5.0 5.2 4.7 7.4 8.3 10.2 9.9 10.4 11.3 8.9 7.1 5.6 6.2
7.2 3.0 6.6 11.2 9.0 8.2 8.5 8.7 9.1 13.2 11.6 16.8 16.4 18.7 20.3 15.7 23.2 24.9 22.2 28.7 26.0 21.9 18.7 19.6 17.9 17.7 17.4 15.6 14.6 12.0 10.5 10.4 8.4 9.3 9.5 10.1 10.3 11.6 7.0 11.6 10.7 8.7 11.8
11.5 9.9 1.9 8.7 11.9 13.0 13.0 13.6 10.7 13.9 17.0 21.0 18.6 22.0 nan 25.0 27.8 30.2 32.3 29.9 30.5 30.0 24.1 25.4 24.7 31.4 29.3 32.9 26.9 21.6 16.2 8.0 10.0 10.6 11.9 12.7 12.7 16.1 9.9 5.8 10.8 12.7 12.7
11.8 13.4 13.7 15.0 9.4 10.2 14.8 11.4 12.2 14.7 13.4 15.5 17.4 20.3 nan 19.7 25.0 29.2 31.1 34.1 39.3 41.6 37.1 41.1 38.8 41.7 39.6 39.5 33.5 32.4 23.5 25.2 22.8 17.4 9.0 9.8 12.8 11.6 12.0 8.2 14.3 8.6 12.4
8.7 6.9 8.4 8.7 9.1 5.2 10.9 14.8 12.2 12.5 12.0 19.6 15.7 16.6 20.5 25.5 26.7 28.0 33.9 40.9 41.4 38.8 36.5 38.8 45.4 39.1 35.5 38.9 41.4 37.4 34.3 30.5 28.2 31.9 17.1 11.6 11.6 14.4 13.5 14.2 11.3 13.2 13.5
7.1 7.8 8.0 12.6 10.9 8.5 11.6 13.2 10.9 5.5 12.6 14.3 23.6 21.4 18.6 21.8 27.1 23.0 26.2 32.7 30.1 35.4 32.7 33.6 30.1 31.7 33.0 37.9 45.8 46.0 50.0 51.1 47.3 44.6 38.8 23.1 19.5 13.1 13.0 15.6 12.2 11.1 10.4
10.5 8.2 8.8 8.0 15.2 10.9 10.0 13.7 8.7 13.7 17.8 13.7 18.7 14.9 16.4 12.1 16.3 23.5 22.6 22.6 22.1 22.9 23.2 23.1 27.0 26.3 27.6 26.3 31.8 39.3 36.9 4.1 25.5 4.5 38.6 29.0 32.5 30.6 27.1 20.4 16.9 15.4 12.9
8.0 8.6 9.2 9.8 9.5 11.3 12.5 12.3 13.0 8.9 13.6 15.0 13.6 14.2 12.3 12.2 12.9 16.9 15.6 16.1 13.6 16.3 16.6 21.1 22.2 21.3 19.6 21.6 22.7 7.2 3.8 3.3 30.8 3.8 30.3 25.7 29.7 27.8 26.4 25.9 21.6 20.1 16.2
Water_Equivalent
0.00 0.00 0.00 0.00 0.00 0.00 0.00 0.00 0.00 0.00 0.00 0.00 0.00 0.00 0.00 0.00 0.00 0.00 0.00 0.00 0.00 0.00 0.00 0.00 0.00 0.00 0.01 0.01 0.00 0.00 0.00 0.00 0.13 0.03 0.00 0.00 0.00 0.03 0.02 0.05 0.09 0.00 0.00
0.00 0.00 0.00 0.00 0.00 0.00 0.00 0.00 0.00 0.00 0.00 0.00 0.00 0.00 0.00 0.00 0.00 0.01 0.01 0.00 0.01 0.01 0.01 0.01 0.01 0.00 0.01 0.01 0.00 0.00 0.00 0.00 0.01 0.03 0.00 0.00 0.00 0.02 0.01 0.01 0.01 0.01 0.08
0.00 0.00 0.00 0.00 0.00 0.00 0.00 0.00 0.00 0.00 0.00 0.00 0.00 0.00 0.00 0.00 0.01 0.01 0.01 0.01 0.01 0.01 0.02 0.02 0.01 0.03 0.04 0.06 0.00 0.00 0.01 0.00 0.00 0.14 0.00 0.00 0.00 0.00 0.09 0.05 0.02 0.02 0.02
0.00 0.00 0.00 0.00 0.00 0.00 0.00 0.02 0.00 0.00 0.00 0.00 0.00 0.00 0.00 0.00 0.00 0.00 0.00 0.00 0.00 0.01 0.01 0.01 0.01 0.02 0.05 0.02 0.02 0.01 0.01 0.09 0.10 0.13 0.11 0.00 0.00 0.00 0.09 0.12 0.18 0.14 0.11
0.00 0.00 0.00 0.00 0.00 0.04 0.04 0.04 0.04 0.04 0.03 0.03 0.03 0.00 0.00 0.00 0.00 0.00 0.00 0.02 0.02 0.02 0.02 0.00 0.00 0.00 nan nan 0.09 0.09 0.06 0.11 0.23 0.26 0.17 0.00 0.00 0.15 0.14 0.14 0.15 0.13 0.12
0.00 0.00 0.00 0.06 0.09 0.07 0.10 0.15 0.06 0.05 0.05 0.05 0.04 0.04 0.00 0.00 nan nan 0.02 0.05 0.03 0.05 0.04 0.02 0.00 0.01 0.00 nan nan nan nan 0.20 0.76 0.79 0.35 0.22 0.04 0.12 0.12 0.15 0.19 0.26 0.49
0.08 0.16 0.17 0.18 0.23 0.15 0.11 0.14 0.11 0.11 0.11 0.06 0.05 0.04 0.04 0.03 nan nan nan 0.09 0.08 0.03 0.04 0.04 0.04 0.02 0.04 0.04 nan nan nan nan nan 0.05 0.33 0.11 0.03 0.02 0.03 0.04 0.07 0.22 0.20
0.26 0.34 0.23 0.19 0.32 0.09 0.09 0.08 0.11 0.08 0.10 0.06 0.11 0.11 0.07 0.02 nan nan nan 0.08 0.06 0.05 0.05 0.05 0.04 0.05 0.04 0.06 0.14 0.14 0.11 0.10 0.05 0.01 0.04 0.03 0.00 0.01 0.02 0.03 0.11 0.33 0.27
0.10 0.16 0.18 0.26 0.35 0.14 0.37 0.08 0.07 0.23 0.15 0.31 0.33 0.46 0.38 0.42 nan nan 0.21 0.28 0.23 0.16 0.08 0.06 0.04 0.05 nan nan 0.19 0.29 0.22 0.14 nan nan nan nan nan nan nan 0.67 1.81 2.20 1.30
0.10 0.10 0.12 0.22 0.45 0.35 0.20 0.31 0.38 0.37 0.36 0.44 0.41 0.37 0.11 0.74 nan nan nan 0.73 0.67 0.45 0.18 0.15 0.04 0.06 nan nan 0.14 0.20 0.37 0.19 0.16 0.54 0.10 0.04 nan nan nan 0.03 0.48 1.52 1.01
0.15 0.12 0.14 0.20 0.46 0.30 0.36 0.31 0.43 0.47 0.26 0.44 0.42 0.34 0.39 0.23 0.27 nan nan 0.46 0.63 0.74 0.66 0.45 0.23 nan nan nan nan 0.19 0.27 0.10 0.50 0.46 0.35 0.41 0.26 0.16 0.29 0.23 0.09 0.41 0.89
0.14 0.15 0.29 0.49 0.47 0.48 0.84 0.52 0.71 0.63 0.62 0.54 0.57 0.47 0.43 0.22 nan nan nan nan nan 1.12 0.49 0.28 0.23 nan nan nan 0.15 nan nan nan 0.90 0.97 0.80 0.62 0.52 0.45 0.29 0.28 0.05 0.13 0.17
0.51 0.72 0.72 0.64 0.64 0.66 1.01 0.60 0.85 0.72 0.87 0.50 0.67 0.62 0.42 0.38 0.49 nan nan nan nan 0.66 0.48 0.28 nan nan nan nan nan nan 0.00 0.54 0.72 0.90 0.57 0.35 0.25 0.22 0.11 0.35 0.16 0.67 0.47
1.04 0.51 0.39 0.51 0.40 0.50 0.73 0.89 1.22 0.91 0.72 0.81 0.96 0.89 0.55 0.52 0.40 0.40 0.81 0.56 0.22 0.60 nan 0.46 nan 0.22 nan nan 0.15 0.23 0.33 0.32 0.37 0.47 0.43 0.24 0.28 0.37 0.57 0.46 0.81 0.79 1.24
0.64 0.32 0.47 0.71 0.81 0.45 0.39 0.70 0.57 0.36 0.80 1.28 1.59 1.01 1.06 1.07 0.90 0.49 1.04 1.11 1.11 0.95 0.77 1.24 0.94 0.40 0.35 0.31 0.44 0.34 0.31 0.37 0.32 0.50 0.52 0.55 0.58 0.61 0.60 0.59 0.75 1.08 1.21
0.32 0.53 0.55 0.55 0.49 0.42 0.41 0.37 nan nan nan nan nan 0.98 1.38 nan nan nan nan nan nan nan 1.80 1.94 0.80 0.63 0.40 0.40 0.49 0.41 0.38 0.26 0.30 0.45 0.54 0.60 0.62 0.67 0.75 0.91 0.95 1.19 1.22
0.63 0.39 0.54 0.45 0.43 0.51 0.53 0.63 0.72 0.42 nan nan nan nan nan nan nan nan nan nan nan nan 3.15 1.53 1.15 0.68 0.58 0.31 0.44 0.33 0.30 0.26 0.06 0.30 0.45 0.58 0.78 0.95 0.98 0.95 0.98 0.96 1.42
0.63 0.54 0.68 0.61 0.57 0.61 0.67 0.71 0.76 0.97 1.00 0.80 nan nan nan nan nan nan nan nan 2.41 nan 2.72 2.40 1.90 1.44 0.90 0.68 0.53 0.41 0.34 0.29 0.27 0.49 0.58 1.18 1.48 1.60 1.53 1.62 1.31 1.65 1.66
0.70 0.64 0.65 0.63 0.61 0.78 0.78 0.81 0.76 1.16 1.20 1.35 1.03 0.94 0.74 nan nan nan nan 1.72 2.72 2.40 2.66 2.66 1.86 1.39 0.99 1.13 1.06 1.25 0.91 0.95 0.88 1.40 1.54 1.89 1.83 1.92 2.01 1.55 1.22 1.14 1.20
0.62 0.64 0.65 0.93 0.71 0.64 0.68 0.69 0.74 1.12 0.86 1.40 1.36 1.51 1.70 1.59 2.15 2.22 1.87 2.84 2.71 2.31 1.97 2.20 2.13 2.26 2.29 2.11 2.07 1.88 1.78 1.84 1.56 1.72 1.72 1.84 1.86 2.10 1.24 2.02 1.84 1.47 1.98
1.05 0.85 0.62 0.71 1.00 1.05 1.07 1.12 0.75 1.05 1.26 1.54 1.30 1.58 nan 1.87 2.16 2.41 2.69 2.41 2.58 2.61 2.06 2.32 2.32 3.14 3.25 3.70 3.32 2.96 2.46 1.26 1.71 1.92 2.14 2.27 2.27 2.95 1.76 1.01 1.86 2.16 2.13
1.11 1.23 1.23 1.31 0.76 0.81 1.20 0.84 0.88 1.10 0.90 1.04 1.12 1.28 nan 1.29 1.70 1.97 2.14 2.51 3.00 3.26 2.94 3.50 3.42 3.88 3.76 3.83 3.30 3.45 2.72 3.11 3.09 2.63 1.55 1.72 2.26 2.06 2.13 1.43 2.43 1.45 2.07
0.84 0.63 0.74 0.73 0.70 1.21 0.87 1.23 0.95 0.93 0.82 1.54 1.02 1.09 1.42 1.86 1.94 1.96 2.48 3.13 3.13 2.88 2.66 2.87 3.66 3.07 2.92 3.41 3.71 3.30 3.09 2.86 2.84 3.55 2.32 1.83 1.89 2.40 2.28 2.41 1.82 2.10 2.12
0.71 0.77 0.76 1.22 1.00 0.70 0.98 1.09 0.83 1.32 0.97 1.10 2.05 1.72 1.37 1.59 2.08 1.63 1.94 2.54 2.29 2.82 2.52 2.61 2.19 2.28 2.55 3.22 4.19 4.21 4.68 4.89 4.67 4.58 4.17 2.72 2.64 2.00 1.90 2.34 1.82 1.75 1.52
1.05 0.82 0.87 0.78 1.53 1.08 0.98 1.31 0.78 1.24 1.62 1.21 1.68 1.29 1.40 0.94 1.29 1.99 1.82 1.78 1.67 1.77 1.74 1.72 2.11 2.02 2.11 2.08 2.73 3.55 3.56 1.35 2.69 1.48 3.62 2.73 3.24 3.19 2.91 2.40 2.14 1.94 1.73
0.81 0.87 0.92 0.98 0.95 1.13 1.25 1.22 1.30 0.89 1.35 1.49 1.34 1.37 1.17 1.13 1.18 1.59 1.44 1.46 1.12 1.29 1.29 1.68 1.74 1.65 1.53 1.72 1.85 1.62 1.27 1.09 2.85 1.25 2.69 2.19 2.57 2.35 2.33 2.34 1.96 1.99 1.75
SL_Ratio
nan nan nan nan nan nan nan nan nan nan nan nan nan nan nan nan 10.0 7.5 7.9 7.5 7.1 6.7 7.5 5.7 5.4 6.0 6.8 3.9 nan nan nan nan 4.8 5.1 nan nan nan 5.1 5.1 5.1 5.1 nan nan
nan nan nan nan nan nan nan nan nan nan nan nan nan nan nan nan 8.3 7.4 6.9 6.7 7.2 6.9 7.0 6.9 7.4 5.0 6.2 5.8 nan nan nan nan 5.0 4.8 nan nan nan 5.1 5.0 5.1 5.1 5.0 5.1
nan nan nan nan nan nan nan nan nan nan nan nan nan nan 10.0 10.0 6.3 6.3 6.9 7.1 6.4 6.4 6.6 7.0 6.8 6.1 6.0 5.1 4.2 nan 5.1 nan nan 5.1 nan nan nan nan 5.1 5.2 5.1 5.1 5.1
nan nan nan nan nan nan 15.0 8.1 nan nan nan nan nan 15.0 10.8 10.0 10.0 8.9 7.9 8.2 8.2 7.5 7.3 6.8 6.9 6.5 5.7 5.8 4.8 4.3 3.9 5.0 5.0 5.1 5.1 nan nan nan 5.1 5.1 5.1 5.5 5.1
nan nan nan nan 15.0 8.4 8.3 8.2 8.1 8.0 8.0 7.7 7.7 10.0 9.6 10.4 10.6 11.3 12.5 6.6 6.2 6.0 5.9 7.9 6.4 4.4 nan nan 5.2 4.5 5.1 4.8 4.7 4.6 5.0 nan nan 5.1 5.1 5.1 5.1 5.1 5.4
10.0 12.1 10.6 9.3 9.0 8.9 8.8 8.6 8.5 8.2 8.1 7.9 7.7 7.7 12.8 12.2 nan nan 10.6 9.3 7.5 7.0 7.2 5.9 8.8 5.4 7.9 nan nan nan nan 4.7 4.7 4.8 5.1 5.0 5.1 5.1 5.1 5.1 5.1 5.1 5.4
10.2 10.0 9.9 9.6 9.4 9.2 9.0 8.8 8.5 8.2 8.0 8.0 7.9 7.7 7.6 7.2 nan nan nan 8.0 7.4 6.8 6.3 6.0 5.7 5.5 5.2 5.3 nan nan nan nan nan 3.9 4.4 4.4 5.0 5.1 5.1 5.1 5.0 5.1 5.1
10.1 10.0 10.1 10.0 10.1 9.4 9.1 8.9 8.7 8.6 8.5 8.4 7.8 7.6 7.7 7.6 nan nan nan 8.5 7.8 6.5 6.2 5.9 5.9 5.7 5.3 5.3 5.4 5.0 5.4 5.2 5.5 5.4 3.9 3.3 2.3 5.1 5.1 5.1 5.0 5.4 5.3
10.3 10.4 10.1 10.3 10.6 10.1 9.8 9.8 10.0 9.2 8.5 8.0 7.7 7.5 7.6 7.0 nan nan 7.5 7.1 6.7 6.3 6.0 6.0 5.8 5.8 nan nan 5.4 5.3 5.2 4.9 nan nan nan nan nan nan nan 5.0 5.0 5.0 6.1
11.1 11.3 11.1 11.2 10.8 10.8 9.9 9.9 9.3 8.9 9.0 8.0 8.0 7.7 6.8 6.6 nan nan nan 6.9 6.1 6.1 6.0 5.4 5.6 5.7 nan nan 5.3 5.3 5.4 5.6 4.6 4.9 5.0 5.1 nan nan nan 5.1 5.0 5.0 5.9
11.4 11.8 11.6 11.2 10.9 11.0 10.4 9.5 9.7 9.1 8.8 8.3 8.3 7.8 8.1 8.0 7.9 nan nan 7.2 6.5 6.3 6.0 5.8 5.7 nan nan nan nan 5.2 5.2 5.1 4.6 4.4 4.9 5.0 5.0 5.0 5.1 5.0 5.1 5.0 5.1
11.7 12.4 11.0 10.6 10.8 10.2 9.6 9.1 8.8 8.8 8.6 8.3 8.1 7.9 7.6 7.8 nan nan nan nan nan 6.3 6.0 5.8 5.6 nan nan nan 5.1 nan nan nan 4.9 4.8 4.9 5.0 5.0 5.0 5.1 5.1 5.1 5.0 5.2
10.4 10.2 10.4 10.2 10.2 10.2 9.7 9.4 8.5 8.2 8.0 8.1 7.6 7.5 7.2 7.2 7.2 nan nan nan nan 6.4 5.9 5.9 nan nan nan nan nan nan nan 5.0 5.1 5.0 5.0 5.1 5.1 5.1 5.1 5.5 6.4 6.6 7.0
10.3 10.4 10.4 10.3 9.6 9.4 9.2 8.9 8.3 8.0 7.8 7.5 7.3 7.0 6.9 6.8 6.7 6.7 6.3 6.1 5.2 5.8 nan 5.6 nan 5.5 nan nan 5.1 5.1 5.1 5.1 5.1 5.1 5.0 5.1 5.1 5.2 5.2 5.3 5.8 5.7 6.1
10.3 10.5 10.2 10.0 9.8 9.5 9.5 11.7 10.9 9.7 9.5 8.8 7.7 7.5 7.8 7.0 6.8 6.9 6.5 6.3 6.1 5.9 5.3 5.5 5.6 5.5 5.4 5.2 5.1 5.1 5.1 5.1 5.1 5.0 5.0 5.2 5.3 5.6 5.7 5.6 5.4 6.1 6.0
10.8 10.3 10.5 10.5 10.1 9.6 9.6 9.6 nan nan nan nan nan 8.3 7.6 nan nan nan nan nan nan nan 5.7 5.7 5.7 5.5 5.6 5.4 5.4 5.3 5.2 5.1 5.1 5.1 5.1 5.3 5.4 5.5 5.9 6.0 5.9 6.4 6.3
12.6 12.3 10.8 9.9 10.8 10.5 9.7 9.3 9.9 9.7 nan nan nan nan nan nan nan nan nan nan nan nan 5.6 5.9 5.8 5.7 5.8 6.0 5.4 5.2 5.3 5.1 5.1 5.2 5.2 5.3 5.3 5.4 5.7 6.2 5.9 6.1 6.1
12.0 3.0 11.8 11.3 10.8 10.5 10.5 10.2 10.8 11.6 11.2 11.7 nan nan nan nan nan nan nan nan 6.7 nan 6.6 6.3 6.1 6.0 6.2 6.4 6.6 6.4 5.7 5.3 5.2 5.2 5.3 5.3 5.3 5.4 5.7 5.8 5.8 6.1 6.1
11.9 12.4 12.8 12.8 12.6 11.8 11.5 11.4 11.4 11.1 11.1 10.7 11.2 11.5 8.1 nan nan nan nan 9.2 8.0 8.0 7.7 7.2 7.3 7.2 7.4 7.1 6.5 6.0 5.5 5.5 5.3 5.3 5.4 5.4 5.4 5.4 5.6 5.7 5.8 4.9 5.2
11.5 4.7 10.1 12.1 12.6 12.8 12.5 12.5 12.4 11.8 13.4 11.9 12.1 12.4 12.0 9.9 10.8 11.2 11.8 10.1 9.6 9.5 9.5 8.9 8.4 7.8 7.6 7.4 7.0 6.4 5.9 5.7 5.4 5.4 5.5 5.5 5.5 5.5 5.6 5.7 5.8 6.0 6.0
10.9 11.7 3.0 12.2 11.9 12.3 12.1 12.2 14.2 13.2 13.5 13.6 14.3 13.9 nan 13.3 12.9 12.5 12.0 12.4 11.8 11.5 11.7 10.9 10.7 10.0 9.0 8.9 8.1 7.3 6.6 6.3 5.8 5.5 5.6 5.6 5.6 5.5 5.6 5.8 5.8 5.9 6.0
10.7 10.9 11.1 11.4 12.4 12.6 12.3 13.5 13.8 13.3 14.8 14.9 15.5 15.8 nan 15.3 14.8 14.8 14.5 13.6 13.1 12.8 12.6 11.8 11.3 10.7 10.5 10.3 10.1 9.4 8.7 8.1 7.4 6.6 5.8 5.7 5.7 5.7 5.6 5.7 5.9 5.9 6.0
10.4 11.0 11.3 11.9 13.0 4.3 12.5 12.1 12.9 13.5 14.7 12.7 15.3 15.2 14.4 13.7 13.8 14.3 13.7 13.1 13.2 13.5 13.8 13.5 12.4 12.8 12.1 11.4 11.1 11.3 11.1 10.7 9.9 9.0 7.3 6.3 6.1 6.0 5.9 5.9 6.2 6.3 6.4
10.1 10.1 10.5 10.4 11.0 12.0 11.8 12.1 13.1 4.1 13.1 13.0 11.5 12.5 13.6 13.7 13.0 14.1 13.5 12.9 13.2 12.5 13.0 12.9 13.8 13.9 12.9 11.7 10.9 10.9 10.7 10.5 10.1 9.7 9.3 8.5 7.4 6.6 6.8 6.7 6.7 6.3 6.9
9.9 10.1 10.1 10.2 10.0 10.1 10.2 10.4 11.1 11.1 11.0 11.4 11.1 11.6 11.8 12.9 12.6 11.8 12.4 12.7 13.2 12.9 13.4 13.4 12.8 13.0 13.1 12.7 11.7 11.1 10.4 3.0 9.5 3.0 10.7 10.6 10.0 9.6 9.3 8.5 7.9 7.9 7.4
9.9 9.9 10.0 10.0 10.0 10.0 10.0 10.0 10.0 10.1 10.0 10.1 10.2 10.4 10.6 10.8 10.9 10.7 10.8 11.1 12.1 12.6 12.8 12.5 12.7 12.9 12.8 12.6 12.3 4.5 3.0 3.0 10.8 3.0 11.3 11.7 11.5 11.8 11.3 11.1 11.0 10.1 9.3